Weather reports worldwide

Advertisment
Deelen, Netherlands (6275): temperature & dewpoint: 17.10.2019 21:00:00 - 23.10.2019 21:00:00 (CEST)Deelen, Netherlands (6275): temperature 5cm: 17.10.2019 21:00:00 - 23.10.2019 21:00:00 (CEST)Deelen, Netherlands (6275): wind speed & gusts: 17.10.2019 21:00:00 - 23.10.2019 21:00:00 (CEST)Deelen, Netherlands (6275): wind direction: 17.10.2019 21:00:00 - 23.10.2019 21:00:00 (CEST)Deelen, Netherlands (6275): reduced air pressure: 17.10.2019 21:00:00 - 23.10.2019 21:00:00 (CEST)Deelen, Netherlands (6275): visibility: 17.10.2019 21:00:00 - 23.10.2019 21:00:00 (CEST)Deelen, Netherlands (6275): precipitation: 17.10.2019 21:00:00 - 23.10.2019 21:00:00 (CEST)
Date & Time tt [°C] td [°C] tt 5cm [°C] ff [km/h] ff [kn] fx [km/h] fx [kn] dd ppp [hPa] vv [km] rr [mm]
23.10.2019 21:00:00 13,4 12,3 12,7 8 4 14 8 ENE 1010,0 5 0,0
23.10.2019 20:00:00 13,1 12,0 12,5 9 5 14 8 - 1010,4 6 0,0
23.10.2019 19:00:00 13,4 11,8 12,6 9 5 22 12 E 1011,0 6 0,0
23.10.2019 18:00:00 14,0 11,7 13,3 11 6 22 12 ENE 1011,3 7 0,0
23.10.2019 17:00:00 14,8 11,5 14,7 15 8 22 12 ENE 1012,2 4,6 0,0
23.10.2019 16:00:00 15,8 11,8 16,1 13 7 22 12 - 1013,1 9 0,0
23.10.2019 15:00:00 15,5 11,5 16,4 16 9 22 12 NE 1014,4 9 0,0
23.10.2019 14:00:00 16,4 11,2 17,7 13 7 22 12 NE 1015,1 10 0,0
23.10.2019 13:00:00 14,0 11,1 14,5 11 6 25 14 E 1015,8 8 0,0
23.10.2019 12:00:00 12,5 11,6 12,5 11 6 22 12 ENE 1016,4 4,0 0,0
23.10.2019 11:00:00 10,8 10,7 11,0 11 6 18 10 ENE 1017,8 3,0 0,0
23.10.2019 10:00:00 10,1 10,1 10,2 8 4 11 6 - 1019,1 0,9 0,0
23.10.2019 09:00:00 9,7 9,7 9,6 5 3 14 8 ENE 1019,2 0,2 0,0
23.10.2019 08:00:00 9,6 9,6 9,4 5 3 14 8 E 1019,4 4,4 0,0
23.10.2019 07:00:00 9,4 9,4 9,1 8 4 14 8 E 1019,5 6 0,0
23.10.2019 06:00:00 9,5 9,5 9,2 5 3 11 6 ENE 1020,2 6 0,0
23.10.2019 05:00:00 9,2 9,1 8,6 5 3 7 4 - 1020,8 5 0,0
23.10.2019 04:00:00 8,2 8,2 6,7 4 2 7 4 - 1021,5 1,1 0,0
23.10.2019 03:00:00 7,7 7,6 5,5 4 2 7 4 - 1021,7 0,4 0,0
23.10.2019 02:00:00 8,2 8,1 6,8 2 1 4 2 ENE 1022,2 0,3 0,0
23.10.2019 01:00:00 8,9 8,8 8,4 4 2 4 2 E 1022,9 0,2 0,0
23.10.2019 00:00:00 9,7 9,6 9,3 4 2 7 4 - 1023,3 0,3 0,0
22.10.2019 23:00:00 10,1 9,9 8,9 2 1 7 4 NNW 1023,5 2,9 0,0
22.10.2019 22:00:00 11,1 10,8 10,4 2 1 7 4 NNW 1023,4 10 0,0
22.10.2019 21:00:00 11,4 11,0 10,5 4 2 11 6 W 1023,8 10 0,0
22.10.2019 20:00:00 11,9 10,9 11,2 5 3 7 4 SW 1023,7 10 0,0
22.10.2019 19:00:00 12,4 10,9 11,4 5 3 18 10 SW 1023,3 10 0,0
22.10.2019 18:00:00 13,8 11,1 13,6 9 5 18 10 WSW 1023,3 10 0,0
22.10.2019 17:00:00 14,3 11,2 14,2 13 7 25 14 SW 1023,3 10 0,0
22.10.2019 16:00:00 15,1 11,3 15,2 13 7 29 16 SW 1022,8 10 0,0
22.10.2019 15:00:00 15,5 12,0 15,2 15 8 29 16 SSW 1023,5 10 0,0
22.10.2019 14:00:00 14,7 12,2 15,3 15 8 22 12 SW 1023,7 10 0,0
22.10.2019 13:00:00 14,1 11,8 14,2 15 8 22 12 SW 1023,9 10 0,0
22.10.2019 12:00:00 13,3 12,2 13,4 11 6 25 14 SW 1023,6 5 0,0
22.10.2019 11:00:00 12,5 11,9 12,5 13 7 18 10 SSW 1023,8 5 0,0
22.10.2019 10:00:00 12,0 11,4 11,9 5 3 18 10 SW 1023,1 6 0,0
22.10.2019 09:00:00 11,6 11,1 11,4 13 7 25 14 SSW 1022,6 8 0,0
22.10.2019 08:00:00 11,0 10,5 10,3 11 6 18 10 SSW 1021,7 9 0,0
22.10.2019 07:00:00 11,5 10,9 11,3 11 6 18 10 SSW 1021,3 9 0,0
22.10.2019 06:00:00 11,5 11,1 11,3 11 6 18 10 S 1021,2 8 0,0
22.10.2019 05:00:00 11,5 11,2 11,3 13 7 22 12 SSW 1021,0 7 0,0
22.10.2019 04:00:00 11,4 11,0 11,2 13 7 22 12 S 1020,8 6 0,0
22.10.2019 03:00:00 11,9 10,5 11,6 11 6 18 10 S 1020,9 10 0,0
22.10.2019 02:00:00 11,7 10,2 11,3 5 3 14 8 S 1020,9 10 0,0
22.10.2019 01:00:00 11,6 10,2 11,2 11 6 18 10 SSW 1020,6 10 0,0
22.10.2019 00:00:00 11,5 10,3 11,2 15 8 29 16 S 1020,1 10 0,0
21.10.2019 23:00:00 11,6 10,1 11,4 15 8 25 14 S 1020,0 9 0,0
21.10.2019 22:00:00 12,3 9,5 11,9 11 6 25 14 S 1019,6 10 0,0
21.10.2019 21:00:00 12,2 9,2 11,8 9 5 22 12 S 1019,5 10 0,0
21.10.2019 20:00:00 12,3 8,8 12,0 11 6 18 10 S 1019,3 10 0,0
21.10.2019 19:00:00 12,8 8,0 12,3 15 8 25 14 S 1018,7 10 0,0
21.10.2019 18:00:00 13,0 8,2 12,6 18 10 29 16 S 1018,1 10 0,0
21.10.2019 17:00:00 13,2 9,6 12,9 18 10 32 18 SSW 1017,6 10 0,0
21.10.2019 16:00:00 14,1 9,7 14,1 24 13 36 19 SSW 1017,0 10 0,0
21.10.2019 15:00:00 14,4 10,0 14,5 28 15 43 23 SSW 1016,8 10 0,0
21.10.2019 14:00:00 14,6 10,6 14,4 18 10 36 19 SSW 1016,0 10 0,0
21.10.2019 13:00:00 14,9 12,6 15,0 13 7 29 16 SW 1015,5 10 0,0
21.10.2019 12:00:00 15,3 13,5 16,1 11 6 22 12 S 1014,9 9 0,0
21.10.2019 11:00:00 13,3 13,0 13,0 13 7 18 10 SSE 1014,2 5 0,0
21.10.2019 10:00:00 11,9 11,8 11,5 11 6 18 10 - 1013,8 4,0 0,2
21.10.2019 09:00:00 11,0 11,0 11,0 8 4 14 8 E 1013,1 0,8 1,1
21.10.2019 08:00:00 10,8 10,7 10,7 9 5 18 10 ENE 1012,3 1,5 0,1
21.10.2019 07:00:00 10,7 10,6 10,6 11 6 25 14 ENE 1012,2 2,0 0,2
21.10.2019 06:00:00 10,7 10,6 10,6 16 9 29 16 ENE 1011,5 4,1 0,1
21.10.2019 05:00:00 10,7 10,6 10,6 8 4 22 12 NE 1012,4 3,6 0,0
21.10.2019 04:00:00 10,8 10,5 10,6 15 8 22 12 NE 1011,5 5 0,0
21.10.2019 03:00:00 11,0 10,2 10,9 8 4 25 14 - 1011,8 5 0,0
21.10.2019 02:00:00 11,1 10,1 10,9 16 9 29 16 - 1011,0 10 0,0
21.10.2019 01:00:00 11,0 10,0 10,8 18 10 25 14 NE 1010,8 10 0,0
21.10.2019 00:00:00 11,1 9,9 10,9 16 9 25 14 NNE 1011,4 10 0,0
20.10.2019 23:00:00 11,1 10,2 10,8 15 8 22 12 NNE 1011,2 10 0,0
20.10.2019 22:00:00 11,1 10,3 10,8 13 7 25 14 NNE 1010,8 9 0,0
20.10.2019 21:00:00 11,3 10,9 11,0 11 6 18 10 N 1010,7 4,8 0,0
20.10.2019 20:00:00 11,3 11,1 11,1 9 5 14 8 N 1010,5 3,8 0,0
20.10.2019 19:00:00 11,3 11,0 11,1 8 4 11 6 N 1010,4 4,9 0,0
20.10.2019 18:00:00 11,6 11,1 11,5 9 5 14 8 NE 1009,7 7 0,0
20.10.2019 17:00:00 11,9 11,2 12,0 8 4 11 6 NE 1009,4 8 0,1
20.10.2019 16:00:00 12,1 11,2 12,2 8 4 14 8 ESE 1009,3 10 0,0
20.10.2019 15:00:00 12,2 11,1 12,6 4 2 7 4 - 1009,4 10 0,3
20.10.2019 14:00:00 11,9 11,2 11,8 4 2 4 2 N 1009,2 6 0,0
20.10.2019 13:00:00 11,3 11,1 11,5 2 1 4 2 - 1009,4 5 0,0
20.10.2019 12:00:00 10,7 10,7 10,8 2 1 7 4 WSW 1009,7 5 0,0
20.10.2019 11:00:00 10,2 10,2 10,2 4 2 7 4 - 1008,8 2,8 0,0
20.10.2019 10:00:00 9,4 9,4 9,3 4 2 7 4 - 1008,8 1,0 0,0
20.10.2019 09:00:00 8,3 8,2 7,4 4 2 7 4 - 1008,3 0,2 0,0
20.10.2019 08:00:00 7,8 7,8 6,8 5 3 7 4 SE 1008,1 0,4 0,0
20.10.2019 07:00:00 8,2 8,1 7,0 5 3 11 6 ESE 1007,5 3,0 0,0
20.10.2019 06:00:00 9,5 9,3 8,5 4 2 14 8 - 1007,1 6 0,0
20.10.2019 05:00:00 9,8 9,5 9,2 9 5 14 8 S 1007,0 7 0,0
20.10.2019 04:00:00 9,8 9,5 9,0 8 4 11 6 S 1006,6 8 0,0
20.10.2019 03:00:00 9,8 9,3 9,1 5 3 14 8 S 1006,9 10 0,0
20.10.2019 02:00:00 10,3 9,4 9,5 11 6 18 10 SSW 1006,8 10 0,0
20.10.2019 01:00:00 10,1 9,6 9,2 11 6 18 10 SSW 1006,7 10 0,0
20.10.2019 00:00:00 9,5 9,1 8,3 9 5 14 8 S 1006,3 10 0,0
19.10.2019 23:00:00 9,9 9,5 9,0 11 6 18 10 S 1006,1 10 0,0
19.10.2019 22:00:00 10,2 9,7 9,6 13 7 18 10 S 1005,6 10 0,0
19.10.2019 21:00:00 10,4 9,7 9,6 11 6 14 8 S 1005,2 10 0,0
19.10.2019 20:00:00 10,6 9,7 9,3 8 4 14 8 S 1004,9 10 0,0
19.10.2019 19:00:00 11,6 10,0 10,8 9 5 14 8 S 1004,5 10 0,0
19.10.2019 18:00:00 12,6 10,1 12,2 9 5 25 14 S 1004,0 10 0,0
19.10.2019 17:00:00 13,0 9,9 12,9 15 8 25 14 S 1003,7 10 0,0
19.10.2019 16:00:00 13,1 10,1 13,0 15 8 22 12 S 1003,6 10 0,0
19.10.2019 15:00:00 13,1 9,7 13,2 16 9 29 16 SSW 1003,5 10 0,0
19.10.2019 14:00:00 13,5 9,8 14,2 16 9 29 16 SSW 1003,5 10 0,0
19.10.2019 13:00:00 12,9 11,8 13,4 15 8 25 14 S 1003,5 10 0,0
19.10.2019 12:00:00 12,0 11,6 12,2 16 9 36 19 S 1003,5 10 0,4
19.10.2019 11:00:00 11,9 11,3 11,8 16 9 29 16 S 1003,6 10 0,4
19.10.2019 10:00:00 11,3 10,9 11,1 13 7 25 14 SSE 1003,4 10 1,0
19.10.2019 09:00:00 10,6 10,4 10,5 13 7 25 14 S 1003,8 7 2,7
19.10.2019 08:00:00 10,7 10,2 10,4 16 9 29 16 S 1003,7 10 0,6
19.10.2019 07:00:00 10,7 9,8 10,4 18 10 29 16 S 1004,0 10 0,4
19.10.2019 06:00:00 10,7 9,4 10,3 22 12 32 18 S 1004,2 10 0,0
19.10.2019 05:00:00 10,7 8,8 10,1 16 9 29 16 S 1004,4 10 0,3
19.10.2019 04:00:00 10,6 7,8 10,0 14 8 32 18 S 1004,5 34 0,0
19.10.2019 03:00:00 10,6 7,4 9,9 18 10 29 16 S 1004,7 42 0,0
19.10.2019 02:00:00 10,5 7,2 9,8 18 10 25 14 S 1005,3 42 0,0
19.10.2019 01:00:00 10,7 7,0 10,0 18 10 29 16 S 1005,6 47 0,0
19.10.2019 00:00:00 10,9 6,9 10,1 21 11 36 19 S 1005,8 10 0,0
18.10.2019 23:00:00 11,4 6,9 10,5 22 12 40 21 S 1005,9 10 0,0
18.10.2019 22:00:00 11,1 7,1 10,2 22 12 36 19 S 1006,1 10 0,0
18.10.2019 21:00:00 11,2 7,6 10,0 22 12 40 21 S 1006,1 10 0,0
18.10.2019 20:00:00 10,6 7,8 9,8 22 12 54 29 S 1005,9 10 0,1
18.10.2019 19:00:00 11,8 7,4 11,2 28 15 47 25 SSW 1005,9 10 0,0
18.10.2019 18:00:00 12,8 7,2 12,0 28 15 43 23 SSW 1005,1 10 0,0
18.10.2019 17:00:00 13,0 7,5 12,5 31 17 54 29 SW 1004,7 10 0,0
18.10.2019 16:00:00 13,3 7,1 13,0 42 23 65 35 SW 1004,0 10 0,0
18.10.2019 15:00:00 13,4 8,2 12,4 28 15 50 27 SW 1003,3 10 0,0
18.10.2019 14:00:00 12,6 7,9 12,2 34 18 54 29 SSW 1002,5 10 0,0
18.10.2019 13:00:00 12,5 10,1 12,6 26 14 40 21 S 1002,0 10 0,2
18.10.2019 12:00:00 12,4 11,1 12,0 31 17 50 27 SSW 1002,0 10 2,3
18.10.2019 11:00:00 15,0 11,5 14,8 26 14 43 23 S 1002,2 10 0,0
18.10.2019 10:00:00 13,5 11,9 13,2 22 12 32 18 S 1003,2 10 0,0
18.10.2019 09:00:00 12,5 11,7 12,0 16 9 29 16 S 1003,8 10 0,0
18.10.2019 08:00:00 12,7 11,9 12,2 18 10 29 16 S 1004,2 10 0,0
18.10.2019 07:00:00 12,5 11,8 11,9 16 9 29 16 S 1004,8 10 0,0
18.10.2019 06:00:00 12,5 11,7 12,2 18 10 29 16 S 1005,4 10 0,2
18.10.2019 05:00:00 12,4 11,6 12,0 16 9 25 14 S 1006,0 10 0,0
18.10.2019 04:00:00 12,4 11,7 11,9 15 8 25 14 S 1006,6 10 0,0
18.10.2019 03:00:00 11,9 11,7 11,5 11 6 18 10 S 1007,4 10 0,0
18.10.2019 02:00:00 11,5 11,4 10,9 11 6 18 10 SSE 1007,8 5 0,0
18.10.2019 01:00:00 11,3 11,1 10,5 9 5 18 10 SSE 1008,0 5 0,0
18.10.2019 00:00:00 11,8 11,5 11,3 13 7 22 12 S 1008,7 7 0,0
17.10.2019 23:00:00 12,6 12,4 12,4 13 7 22 12 S 1008,9 5 0,0
17.10.2019 22:00:00 12,6 12,2 12,3 11 6 22 12 SSW 1008,9 7 0,0
17.10.2019 21:00:00 12,8 12,4 12,5 11 6 18 10 S 1008,9 10 0,0

tt = temperature
td = dewpoint
tt 5cm = temperature 5cm
ff = wind speed
fx = gusts
dd = wind direction
ppp = reduced air pressure
vv = visibility
rr = precipitation

Next stations